| time (UTC) | temp F | wind direction | speed knots | gust knots | rain 1hr in | rain 24hr in | rain mn in | humidity % | barometer mb |
| 20260504214754 | 72 | 277 | 4.3 | 7.0 | 0.00 | 0.00 | 0.00 | 39 | 1009.6 |
| 20260504214250 | 72 | 283 | 2.6 | 4.3 | 0.00 | 0.00 | 0.00 | 39 | 1009.5 |
| 20260504213747 | 70 | 267 | 6.1 | 8.7 | 0.00 | 0.00 | 0.00 | 39 | 1009.5 |
| 20260504213243 | 71 | 290 | 5.2 | 8.7 | 0.00 | 0.00 | 0.00 | 39 | 1009.5 |
| 20260504212741 | 71 | 269 | 1.7 | 4.3 | 0.00 | 0.00 | 0.00 | 38 | 1009.3 |
| 20260504212237 | 72 | 279 | 3.5 | 4.3 | 0.00 | 0.00 | 0.00 | 37 | 1009.7 |
| 20260504211735 | 72 | 267 | 3.5 | 4.3 | 0.00 | 0.00 | 0.00 | 37 | 1009.4 |
| 20260504211231 | 72 | 264 | 4.3 | 7.0 | 0.00 | 0.00 | 0.00 | 38 | 1009.5 |
| 20260504210728 | 71 | 268 | 6.1 | 9.6 | 0.00 | 0.00 | 0.00 | 38 | 1009.6 |
| 20260504210225 | 72 | 317 | 5.2 | 7.0 | 0.00 | 0.00 | 0.00 | 37 | 1009.6 |
| 20260504205722 | 72 | 293 | 5.2 | 7.0 | 0.00 | 0.00 | 0.00 | 37 | 1009.5 |
| 20260504205220 | 72 | 274 | 5.2 | 6.1 | 0.00 | 0.00 | 0.00 | 38 | 1009.8 |
| 20260504204718 | 72 | 263 | 6.1 | 10.4 | 0.00 | 0.00 | 0.00 | 37 | 1010.0 |
| 20260504204216 | 72 | 281 | 8.7 | 10.4 | 0.00 | 0.00 | 0.00 | 38 | 1009.8 |
| 20260504203715 | 72 | 272 | 4.3 | 6.1 | 0.00 | 0.00 | 0.00 | 38 | 1009.7 |
| 20260504203212 | 72 | 281 | 4.3 | 7.0 | 0.00 | 0.00 | 0.00 | 39 | 1009.8 |
| 20260504202712 | 71 | 266 | 7.0 | 8.7 | 0.00 | 0.00 | 0.00 | 38 | 1010.1 |
| 20260504202209 | 71 | 300 | 8.7 | 10.4 | 0.00 | 0.00 | 0.00 | 39 | 1010.0 |
| 20260504201706 | 73 | 312 | 5.2 | 7.0 | 0.00 | 0.00 | 0.00 | 39 | 1010.1 |
| 20260504201204 | 71 | 274 | 5.2 | 8.7 | 0.00 | 0.00 | 0.00 | 37 | 1010.2 |
| 20260504200701 | 72 | 288 | 6.1 | 12.2 | 0.00 | 0.00 | 0.00 | 38 | 1010.1 |
| 20260504200152 | 72 | 271 | 7.8 | 12.2 | 0.00 | 0.00 | 0.00 | 39 | 1010.1 |
| 20260504195648 | 71 | 299 | 5.2 | 8.7 | 0.00 | 0.00 | 0.00 | 38 | 1010.1 |
| 20260504195144 | 71 | 295 | 8.7 | 10.4 | 0.00 | 0.00 | 0.00 | 38 | 1010.3 |
| 20260504194641 | 70 | 20 | 3.5 | 7.0 | 0.00 | 0.00 | 0.00 | 40 | 1010.3 |
| 20260504194137 | 70 | 240 | 5.2 | 9.6 | 0.00 | 0.00 | 0.00 | 38 | 1010.4 |
| 20260504193633 | 70 | 263 | 6.1 | 7.0 | 0.00 | 0.00 | 0.00 | 40 | 1010.6 |
| 20260504193132 | 70 | 287 | 6.1 | 10.4 | 0.00 | 0.00 | 0.00 | 38 | 1010.6 |
| 20260504192629 | 71 | 289 | 5.2 | 8.7 | 0.00 | 0.00 | 0.00 | 38 | 1010.6 |
| 20260504192127 | 70 | 271 | 8.7 | 12.2 | 0.00 | 0.00 | 0.00 | 39 | 1010.5 |
| 20260504191626 | 70 | 266 | 4.3 | 9.6 | 0.00 | 0.00 | 0.00 | 40 | 1010.7 |
| 20260504191121 | 70 | 287 | 6.1 | 8.7 | 0.00 | 0.00 | 0.00 | 39 | 1010.6 |
| 20260504190617 | 70 | 279 | 6.1 | 9.6 | 0.00 | 0.00 | 0.00 | 39 | 1010.7 |
| 20260504190114 | 70 | 263 | 4.3 | 6.1 | 0.00 | 0.00 | 0.00 | 40 | 1010.6 |
| 20260504185611 | 69 | 268 | 7.0 | 8.7 | 0.00 | 0.00 | 0.00 | 40 | 1010.7 |
| 20260504185107 | 70 | 281 | 3.5 | 9.6 | 0.00 | 0.00 | 0.00 | 40 | 1010.8 |
| 20260504184603 | 69 | 287 | 6.1 | 10.4 | 0.00 | 0.00 | 0.00 | 39 | 1010.8 |
| 20260504184058 | 69 | 292 | 3.5 | 6.1 | 0.00 | 0.00 | 0.00 | 40 | 1011.0 |
| 20260504183556 | 69 | 275 | 4.3 | 7.0 | 0.00 | 0.00 | 0.00 | 39 | 1011.0 |
| 20260504183054 | 69 | 261 | 5.2 | 8.7 | 0.00 | 0.00 | 0.00 | 40 | 1011.1 |
| 20260504182550 | 69 | 300 | 7.0 | 10.4 | 0.00 | 0.00 | 0.00 | 41 | 1011.0 |
| 20260504182048 | 69 | 270 | 6.1 | 9.6 | 0.00 | 0.00 | 0.00 | 40 | 1011.5 |
| 20260504181545 | 69 | 283 | 6.1 | 9.6 | 0.00 | 0.00 | 0.00 | 40 | 1011.2 |
| 20260504181043 | 68 | 306 | 6.1 | 9.6 | 0.00 | 0.00 | 0.00 | 40 | 1011.3 |
| 20260504180542 | 68 | 278 | 7.0 | 8.7 | 0.00 | 0.00 | 0.00 | 42 | 1011.3 |
| 20260504180040 | 69 | 255 | 3.5 | 9.6 | 0.00 | 0.00 | 0.00 | 41 | 1011.4 |
| 20260504175537 | 68 | 297 | 7.0 | 12.2 | 0.00 | 0.00 | 0.00 | 41 | 1011.4 |
| 20260504175034 | 69 | 261 | 5.2 | 7.0 | 0.00 | 0.00 | 0.00 | 41 | 1011.4 |
| 20260504174532 | 68 | 280 | 6.1 | 9.6 | 0.00 | 0.00 | 0.00 | 41 | 1011.5 |
| 20260504174028 | 68 | 265 | 4.3 | 7.0 | 0.00 | 0.00 | 0.00 | 40 | 1011.7 |
| 20260504173525 | 68 | 278 | 5.2 | 7.0 | 0.00 | 0.00 | 0.00 | 42 | 1011.7 |
| 20260504173023 | 68 | 275 | 5.2 | 7.0 | 0.00 | 0.00 | 0.00 | 41 | 1011.6 |
| 20260504172519 | 68 | 278 | 3.5 | 7.0 | 0.00 | 0.00 | 0.00 | 44 | 1011.9 |
| 20260504172015 | 67 | 263 | 6.1 | 7.0 | 0.00 | 0.00 | 0.00 | 40 | 1012.2 |
| 20260504171512 | 67 | 264 | 5.2 | 7.0 | 0.00 | 0.00 | 0.00 | 41 | 1012.2 |
| 20260504171009 | 66 | 263 | 5.2 | 9.6 | 0.00 | 0.00 | 0.00 | 42 | 1012.3 |
| 20260504170505 | 66 | 289 | 6.1 | 9.6 | 0.00 | 0.00 | 0.00 | 42 | 1012.5 |
| 20260504160425 | 64 | 283 | 5.2 | 7.0 | 0.00 | 0.00 | 0.00 | 41 | 1013.0 |
| 20260504150849 | 61 | 275 | 5.2 | 7.0 | 0.00 | 0.00 | 0.00 | 41 | 1013.5 |
| 20260504150345 | 62 | 266 | 7.0 | 8.7 | 0.00 | 0.00 | 0.00 | 43 | 1013.4 |
| 20260504141316 | 57 | 284 | 3.5 | 6.1 | 0.00 | 0.00 | 0.00 | 47 | 1013.9 |
| 20260504140812 | 57 | 270 | 5.2 | 7.0 | 0.00 | 0.00 | 0.00 | 48 | 1014.0 |
| 20260504140308 | 58 | 273 | 3.5 | 4.3 | 0.00 | 0.00 | 0.00 | 50 | 1013.8 |
| 20260504130737 | 55 | 293 | 5.2 | 7.0 | 0.00 | 0.00 | 0.00 | 47 | 1014.2 |
| 20260504130232 | 54 | 273 | 2.6 | 4.3 | 0.00 | 0.00 | 0.00 | 49 | 1014.2 |
| 20260504120156 | 52 | 283 | 3.5 | 3.5 | 0.00 | 0.00 | 0.00 | 51 | 1014.8 |
| 20260504110624 | 48 | 277 | 2.6 | 2.6 | 0.00 | 0.00 | 0.00 | 57 | 1014.3 |
| 20260504110120 | 48 | 276 | 2.6 | 3.5 | 0.00 | 0.00 | 0.00 | 57 | 1014.3 |
| 20260504100545 | 46 | 276 | 2.6 | 2.6 | 0.00 | 0.00 | 0.00 | 57 | 1014.0 |
| 20260504081939 | 48 | 290 | 4.3 | 4.3 | 0.00 | 0.00 | 0.00 | 55 | 1014.3 |
| 20260504081436 | 47 | 276 | 3.5 | 4.3 | 0.00 | 0.00 | 0.00 | 55 | 1014.3 |
| 20260504080932 | 48 | 272 | 3.5 | 4.3 | 0.00 | 0.00 | 0.00 | 55 | 1014.4 |
| 20260504080429 | 48 | 279 | 3.5 | 6.1 | 0.00 | 0.00 | 0.00 | 55 | 1014.4 |
| 20260504070356 | 49 | 278 | 3.5 | 6.1 | 0.00 | 0.00 | 0.00 | 52 | 1014.2 |
| 20260504050744 | 50 | 268 | 3.5 | 4.3 | 0.00 | 0.00 | 0.00 | 50 | 1014.2 |
| 20260504050241 | 50 | 277 | 4.3 | 6.1 | 0.00 | 0.00 | 0.00 | 51 | 1014.2 |
| 20260504045738 | 50 | 270 | 5.2 | 6.1 | 0.00 | 0.00 | 0.00 | 51 | 1014.3 |
| 20260504045233 | 50 | 269 | 4.3 | 4.3 | 0.00 | 0.00 | 0.00 | 51 | 1014.1 |
| 20260504044731 | 50 | 267 | 4.3 | 4.3 | 0.00 | 0.00 | 0.00 | 52 | 1014.1 |
| 20260504044229 | 50 | 272 | 3.5 | 4.3 | 0.00 | 0.00 | 0.00 | 51 | 1014.2 |
| 20260504043725 | 50 | 274 | 3.5 | 7.0 | 0.00 | 0.00 | 0.00 | 50 | 1014.1 |
| 20260504043222 | 50 | 276 | 4.3 | 4.3 | 0.00 | 0.00 | 0.00 | 50 | 1014.1 |
| 20260504042720 | 50 | 271 | 3.5 | 4.3 | 0.00 | 0.00 | 0.00 | 51 | 1014.1 |
| 20260504042216 | 50 | 276 | 3.5 | 4.3 | 0.00 | 0.00 | 0.00 | 50 | 1014.0 |
| 20260504041712 | 50 | 271 | 4.3 | 4.3 | 0.00 | 0.00 | 0.00 | 50 | 1014.1 |
| 20260504041208 | 50 | 275 | 3.5 | 3.5 | 0.00 | 0.00 | 0.00 | 51 | 1014.1 |
| 20260504040705 | 50 | 272 | 3.5 | 4.3 | 0.00 | 0.00 | 0.00 | 51 | 1014.1 |
| 20260504040202 | 50 | 274 | 3.5 | 4.3 | 0.00 | 0.00 | 0.00 | 51 | 1013.9 |
| 20260504035658 | 50 | 271 | 3.5 | 4.3 | 0.00 | 0.00 | 0.00 | 50 | 1014.0 |
| 20260504035156 | 50 | 266 | 4.3 | 4.3 | 0.00 | 0.00 | 0.00 | 50 | 1013.8 |
| 20260504034653 | 50 | 269 | 3.5 | 4.3 | 0.00 | 0.00 | 0.00 | 49 | 1013.7 |
| 20260504034150 | 50 | 265 | 4.3 | 4.3 | 0.00 | 0.00 | 0.00 | 50 | 1013.6 |
| 20260504033648 | 50 | 265 | 3.5 | 4.3 | 0.00 | 0.00 | 0.00 | 50 | 1013.5 |
| 20260504033145 | 51 | 266 | 3.5 | 6.1 | 0.00 | 0.00 | 0.00 | 48 | 1013.7 |
| 20260504032641 | 51 | 275 | 3.5 | 4.3 | 0.00 | 0.00 | 0.00 | 49 | 1013.7 |
| 20260504032139 | 51 | 264 | 4.3 | 6.1 | 0.00 | 0.00 | 0.00 | 48 | 1013.6 |
| 20260504031636 | 51 | 267 | 4.3 | 4.3 | 0.00 | 0.00 | 0.00 | 48 | 1013.5 |
| 20260504031132 | 51 | 261 | 5.2 | 6.1 | 0.00 | 0.00 | 0.00 | 47 | 1013.5 |
| 20260504030629 | 51 | 266 | 4.3 | 4.3 | 0.00 | 0.00 | 0.00 | 47 | 1013.5 |
| 20260504030125 | 51 | 265 | 4.3 | 6.1 | 0.00 | 0.00 | 0.00 | 47 | 1013.6 |
| 20260504025622 | 52 | 264 | 4.3 | 6.1 | 0.00 | 0.00 | 0.00 | 46 | 1013.7 |
| 20260504025119 | 52 | 266 | 5.2 | 6.1 | 0.00 | 0.00 | 0.00 | 47 | 1013.4 |
| 20260504024617 | 52 | 269 | 3.5 | 4.3 | 0.00 | 0.00 | 0.00 | 47 | 1013.5 |
| 20260504024113 | 52 | 268 | 3.5 | 4.3 | 0.00 | 0.00 | 0.00 | 46 | 1013.6 |
| 20260504023610 | 52 | 270 | 3.5 | 4.3 | 0.00 | 0.00 | 0.00 | 46 | 1013.5 |
| 20260504023105 | 52 | 265 | 4.3 | 4.3 | 0.00 | 0.00 | 0.00 | 47 | 1013.6 |
| 20260504022602 | 52 | 272 | 3.5 | 3.5 | 0.00 | 0.00 | 0.00 | 47 | 1013.7 |
| 20260504022058 | 52 | 275 | 3.5 | 3.5 | 0.00 | 0.00 | 0.00 | 46 | 1013.6 |
| 20260504021556 | 52 | 271 | 3.5 | 4.3 | 0.00 | 0.00 | 0.00 | 46 | 1013.5 |
| 20260504021053 | 53 | 278 | 4.3 | 4.3 | 0.00 | 0.00 | 0.00 | 45 | 1013.7 |
| 20260504020549 | 53 | 277 | 4.3 | 4.3 | 0.00 | 0.00 | 0.00 | 44 | 1013.6 |
| 20260504020046 | 53 | 268 | 4.3 | 6.1 | 0.00 | 0.00 | 0.00 | 44 | 1013.6 |
| 20260504015542 | 53 | 272 | 3.5 | 6.1 | 0.00 | 0.00 | 0.00 | 44 | 1013.7 |
| 20260504015038 | 53 | 264 | 5.2 | 6.1 | 0.00 | 0.00 | 0.00 | 44 | 1013.5 |
| 20260504014535 | 53 | 265 | 4.3 | 6.1 | 0.00 | 0.00 | 0.00 | 44 | 1013.6 |
| 20260504014032 | 53 | 262 | 5.2 | 6.1 | 0.00 | 0.00 | 0.00 | 43 | 1013.6 |
| 20260504013530 | 53 | 270 | 4.3 | 4.3 | 0.00 | 0.00 | 0.00 | 43 | 1013.5 |
| 20260504013026 | 53 | 263 | 4.3 | 6.1 | 0.00 | 0.00 | 0.00 | 44 | 1013.5 |
| 20260504012524 | 53 | 262 | 4.3 | 4.3 | 0.00 | 0.00 | 0.00 | 44 | 1013.5 |
| 20260504012021 | 53 | 267 | 3.5 | 4.3 | 0.00 | 0.00 | 0.00 | 44 | 1013.4 |
| 20260504011517 | 53 | 265 | 4.3 | 6.1 | 0.00 | 0.00 | 0.00 | 43 | 1013.5 |
| 20260504011013 | 53 | 264 | 3.5 | 4.3 | 0.00 | 0.00 | 0.00 | 43 | 1013.4 |
| 20260504010509 | 53 | 271 | 3.5 | 4.3 | 0.00 | 0.00 | 0.00 | 42 | 1013.4 |
| 20260504010005 | 53 | 276 | 2.6 | 3.5 | 0.00 | 0.00 | 0.00 | 42 | 1013.3 |
| 20260504005502 | 54 | 274 | 2.6 | 4.3 | 0.00 | 0.00 | 0.00 | 42 | 1013.4 |
| 20260504005000 | 54 | 281 | 3.5 | 3.5 | 0.00 | 0.00 | 0.00 | 42 | 1013.1 |
| 20260504004457 | 54 | 285 | 3.5 | 4.3 | 0.00 | 0.00 | 0.00 | 42 | 1013.3 |
| 20260504003954 | 54 | 283 | 3.5 | 4.3 | 0.00 | 0.00 | 0.00 | 41 | 1013.2 |
| 20260504003450 | 54 | 275 | 2.6 | 6.1 | 0.00 | 0.00 | 0.00 | 42 | 1013.0 |
| 20260504002947 | 54 | 278 | 3.5 | 4.3 | 0.00 | 0.00 | 0.00 | 42 | 1013.0 |
| 20260504002444 | 54 | 288 | 2.6 | 3.5 | 0.00 | 0.00 | 0.00 | 43 | 1012.9 |
| 20260504001942 | 54 | 276 | 2.6 | 3.5 | 0.00 | 0.00 | 0.00 | 42 | 1012.6 |
| 20260504001439 | 54 | 281 | 3.5 | 4.3 | 0.00 | 0.00 | 0.00 | 41 | 1012.6 |
| 20260504000935 | 54 | 286 | 3.5 | 3.5 | 0.00 | 0.00 | 0.00 | 42 | 1012.7 |
| 20260504000433 | 55 | 288 | 3.5 | 3.5 | 0.00 | 0.00 | 0.00 | 42 | 1012.8 |
| 20260503235930 | 55 | 283 | 3.5 | 4.3 | 0.00 | 0.00 | 0.00 | 41 | 1012.8 |
| 20260503235428 | 55 | 285 | 4.3 | 6.1 | 0.00 | 0.00 | 0.00 | 41 | 1012.6 |
| 20260503234925 | 56 | 276 | 4.3 | 6.1 | 0.00 | 0.00 | 0.00 | 39 | 1012.5 |
| 20260503234422 | 56 | 290 | 5.2 | 6.1 | 0.00 | 0.00 | 0.00 | 40 | 1012.6 |
| 20260503233920 | 56 | 289 | 4.3 | 6.1 | 0.00 | 0.00 | 0.00 | 39 | 1012.6 |
| 20260503233416 | 56 | 290 | 4.3 | 6.1 | 0.00 | 0.00 | 0.00 | 40 | 1012.5 |
| 20260503232913 | 56 | 290 | 4.3 | 6.1 | 0.00 | 0.00 | 0.00 | 40 | 1012.3 |
| 20260503232410 | 56 | 293 | 5.2 | 8.7 | 0.00 | 0.00 | 0.00 | 39 | 1012.3 |
| 20260503231908 | 57 | 288 | 6.1 | 9.6 | 0.00 | 0.00 | 0.00 | 39 | 1012.2 |
| 20260503231405 | 57 | 295 | 7.0 | 12.2 | 0.00 | 0.00 | 0.00 | 37 | 1012.2 |
| 20260503230901 | 57 | 287 | 7.8 | 10.4 | 0.00 | 0.00 | 0.00 | 37 | 1012.2 |
| 20260503230357 | 58 | 290 | 8.7 | 10.4 | 0.00 | 0.00 | 0.00 | 36 | 1012.2 |
| 20260503225855 | 57 | 302 | 5.2 | 9.6 | 0.00 | 0.00 | 0.00 | 37 | 1012.2 |
| 20260503225351 | 57 | 276 | 7.0 | 9.6 | 0.00 | 0.00 | 0.00 | 38 | 1012.2 |
| 20260503224848 | 58 | 299 | 7.0 | 10.4 | 0.00 | 0.00 | 0.00 | 37 | 1012.2 |
| 20260503224345 | 59 | 302 | 6.1 | 8.7 | 0.00 | 0.00 | 0.00 | 36 | 1012.1 |
| 20260503223843 | 58 | 305 | 7.8 | 9.6 | 0.00 | 0.00 | 0.00 | 34 | 1012.0 |
| 20260503223340 | 59 | 291 | 7.0 | 8.7 | 0.00 | 0.00 | 0.00 | 36 | 1012.0 |
| 20260503222835 | 58 | 295 | 7.0 | 8.7 | 0.00 | 0.00 | 0.00 | 36 | 1012.1 |
| 20260503222334 | 58 | 285 | 7.8 | 9.6 | 0.00 | 0.00 | 0.00 | 36 | 1012.2 |
| 20260503221832 | 58 | 305 | 6.1 | 8.7 | 0.00 | 0.00 | 0.00 | 36 | 1012.2 |
| 20260503221331 | 59 | 303 | 7.8 | 9.6 | 0.00 | 0.00 | 0.00 | 34 | 1012.1 |
| 20260503220826 | 59 | 291 | 8.7 | 9.6 | 0.00 | 0.00 | 0.00 | 35 | 1012.1 |
| 20260503220323 | 58 | 297 | 6.1 | 8.7 | 0.00 | 0.00 | 0.00 | 36 | 1012.3 |
| 20260503215814 | 59 | 288 | 9.6 | 10.4 | 0.00 | 0.00 | 0.00 | 36 | 1012.1 |
| 20260503215311 | 60 | 292 | 6.1 | 7.0 | 0.00 | 0.00 | 0.00 | 35 | 1012.2 |